Simultaneous Nadir Overpasses (SNOs) Predictions

Prediction of SNOs between GOES-17 and METOP-B Satellite Orbit:

Table of predicted SNOs for the next 14.0 days since TLE Epoch: 2/19/2022
Index Date Time (GOES-17) GOES-17 Lat,Lon METOP-B Lat,Lon Distance(km) Time Diff (sec)
1 02/20/2022 06:40:46 -0.03,-137.17 -0.07,-137.25 9.66 80
2 02/22/2022 18:36:18 0.02,-137.13 -0.04,-136.82 35.48 80
3 02/24/2022 06:57:59 -0.03,-137.09 -0.97,-141.42 493.15 80
4 02/25/2022 06:34:38 -0.02,-137.06 0.10,-136.42 72.96 80
5 02/26/2022 18:53:29 0.03,-137.03 0.91,-140.98 450.95 80
6 02/27/2022 18:35:30 0.03,-137.00 -0.21,-135.99 114.88 80
7 03/01/2022 06:51:49 -0.02,-136.94 -0.84,-140.58 414.83 80
8 03/02/2022 06:33:50 -0.02,-136.91 0.29,-135.59 150.92 80
9 03/03/2022 18:50:01 0.02,-136.87 0.73,-140.15 373.46 80
10 03/04/2022 18:32:01 0.02,-136.84 -0.34,-135.15 192.31 80
